Weather History for Darlington, SC

Change the Weather History Date:

Saturday, March 30, 2013

  Actual Average (KFLO) Record (KFLO)
Temperature  
Mean Temperature 58 °F 59 °F  
Max Temperature 68 °F 72 °F 89 °F (1985)
Min Temperature 48 °F 47 °F 30 °F (1964)
Degree Days  
Heating Degree Days 7 7  
Month to date heating degree days 302  
Since 1 July heating degree days 2368  
Cooling Degree Days 0 1  
Month to date cooling degree days 17  
Year to date cooling degree days 23  
Growing Degree Days 8 (Base 50)    
Moisture  
Dew Point 43 °F    
Average Humidity 62    
Maximum Humidity 87    
Minimum Humidity 40    
Precipitation  
Precipitation 0.01 in 0.11 in 1.50 in (1970)
Month to date precipitation 3.23  
Year to date precipitation 9.38  
Sea Level Pressure  
Sea Level Pressure 30.18 in    
Wind  
Wind Speed 4 mph (East)    
Max Wind Speed 10 mph    
Max Gust Speed -    
Visibility 10 miles    
Events      
T = Trace of Precipitation, MM = Missing Value Source: NWS Daily Summary

Daily Weather History Graph

Daily Weather History Graph

Search for Another Location

Airport:

Trip Planner

Search our weather history database for the weather conditions in past years. The results will help you decide how hot, cold, wet, or windy it might be!

Date:

Astronomy

Mar. 30, 2013 Rise Set
Actual Time 7:09 AM EDT 7:39 PM EDT
Civil Twilight 6:43 AM EDT 8:04 PM EDT
Nautical Twilight 6:14 AM EDT 8:34 PM EDT
Astronomical Twilight 5:44 AM EDT 9:04 PM EDT
Moon 11:33 PM EDT (3/30) 9:12 AM EDT (3/30)
Length of Visible Light 13h 20m
Length of Day
12h 30m
Waning Gibbous, 86% of the Moon is Illuminated
Mar 30
Waning Gibbous
Apr 3
Last Quarter
Apr 10
New
Apr 18
First Quarter
Apr 25
Full

Hourly Weather History & Observations

Time (EDT) Temp. Dew Point Humidity Pressure Visibility Wind Dir Wind Speed Gust Speed Precip Events Conditions
12:15 AM 53.6 °F 33.8 °F 47% 30.24 in 10.0 mi NW 5.8 mph - N/A   Partly Cloudy
12:35 AM 55.4 °F 33.8 °F 44% 30.25 in 10.0 mi SW 10.4 mph - N/A   Mostly Cloudy
12:55 AM 55.4 °F 33.8 °F 44% 30.24 in 10.0 mi WSW 6.9 mph - N/A   Overcast
1:15 AM 53.6 °F 37.4 °F 54% 30.24 in 10.0 mi WSW 5.8 mph - N/A   Overcast
1:35 AM 53.6 °F 37.4 °F 54% 30.24 in 10.0 mi Calm Calm - N/A   Overcast
1:55 AM 51.8 °F 42.8 °F 71% 30.23 in 10.0 mi Calm Calm - N/A   Overcast
2:15 AM 51.8 °F 42.8 °F 71% 30.22 in 10.0 mi SSE 3.5 mph - N/A   Overcast
2:35 AM 51.8 °F 39.2 °F 62% 30.23 in 10.0 mi SSE 3.5 mph - N/A   Overcast
2:55 AM 51.8 °F 41.0 °F 67% 30.22 in 10.0 mi Calm Calm - N/A   Mostly Cloudy
3:15 AM 51.8 °F 39.2 °F 62% 30.23 in 10.0 mi SSW 5.8 mph - N/A   Scattered Clouds
3:35 AM 50.0 °F 41.0 °F 71% 30.23 in 10.0 mi Calm Calm - N/A   Scattered Clouds
3:55 AM 50.0 °F 42.8 °F 76% 30.22 in 10.0 mi Calm Calm - N/A   Scattered Clouds
4:15 AM 50.0 °F 42.8 °F 76% 30.23 in 10.0 mi Calm Calm - N/A   Mostly Cloudy
4:35 AM 48.2 °F 42.8 °F 82% 30.23 in 10.0 mi Calm Calm - N/A   Overcast
4:55 AM 50.0 °F 42.8 °F 76% 30.24 in 10.0 mi Calm Calm - N/A   Overcast
5:15 AM 50.0 °F 42.8 °F 76% 30.24 in 10.0 mi NNW 3.5 mph - N/A   Mostly Cloudy
5:35 AM 50.0 °F 42.8 °F 76% 30.23 in 10.0 mi North - - N/A   Clear
5:55 AM 48.2 °F 44.6 °F 87% 30.24 in 10.0 mi Calm Calm - N/A   Clear
6:15 AM 48.2 °F 44.6 °F 87% 30.24 in 10.0 mi NE 3.5 mph - N/A   Mostly Cloudy
6:35 AM 48.2 °F 44.6 °F 87% 30.24 in 10.0 mi NNE 4.6 mph - N/A   Overcast
6:55 AM 48.2 °F 42.8 °F 82% 30.24 in 10.0 mi Calm Calm - 0.01 in   Scattered Clouds
7:15 AM 48.2 °F 42.8 °F 82% 30.24 in 10.0 mi Calm Calm - N/A   Mostly Cloudy
7:35 AM 48.2 °F 42.8 °F 82% 30.25 in 10.0 mi Calm Calm - N/A   Mostly Cloudy
7:55 AM 48.2 °F 42.8 °F 82% 30.24 in 10.0 mi ENE 5.8 mph - N/A   Mostly Cloudy
8:15 AM 48.2 °F 42.8 °F 82% 30.24 in 10.0 mi NE 5.8 mph - N/A   Partly Cloudy
8:35 AM 48.2 °F 42.8 °F 82% 30.25 in 10.0 mi NE 3.5 mph - N/A   Clear
8:55 AM 50.0 °F 42.8 °F 76% 30.25 in 10.0 mi NNE 6.9 mph - N/A   Clear
9:15 AM 50.0 °F 42.8 °F 76% 30.25 in 10.0 mi Calm Calm - N/A   Scattered Clouds
9:35 AM 50.0 °F 44.6 °F 82% 30.25 in 10.0 mi East 3.5 mph - N/A   Scattered Clouds
9:55 AM 51.8 °F 44.6 °F 76% 30.24 in 10.0 mi ENE 4.6 mph - N/A   Mostly Cloudy
10:15 AM 53.6 °F 44.6 °F 72% 30.23 in 10.0 mi NE 9.2 mph - N/A   Mostly Cloudy
10:35 AM 53.6 °F 44.6 °F 72% 30.22 in 10.0 mi NE 6.9 mph - N/A   Scattered Clouds
10:55 AM 55.4 °F 46.4 °F 72% 30.22 in 10.0 mi NE 8.1 mph - N/A   Scattered Clouds
11:15 AM 55.4 °F 44.6 °F 67% 30.22 in 10.0 mi ENE 8.1 mph - N/A   Scattered Clouds
11:35 AM 57.2 °F 44.6 °F 63% 30.22 in 10.0 mi NNE 8.1 mph - N/A   Partly Cloudy
11:55 AM 60.8 °F 44.6 °F 55% 30.22 in 10.0 mi NE 8.1 mph - N/A   Partly Cloudy
12:15 PM 60.8 °F 44.6 °F 55% 30.21 in 10.0 mi NE 5.8 mph - N/A   Clear
12:35 PM 60.8 °F 39.2 °F 45% 30.21 in 10.0 mi ESE 8.1 mph - N/A   Clear
12:55 PM 62.6 °F 42.8 °F 48% 30.20 in 10.0 mi SSE 9.2 mph - N/A   Clear
1:15 PM 62.6 °F 42.8 °F 48% 30.19 in 10.0 mi SE 6.9 mph - N/A   Clear
1:35 PM 62.6 °F 42.8 °F 48% 30.18 in 10.0 mi SE 6.9 mph - N/A   Clear
1:55 PM 64.4 °F 42.8 °F 45% 30.18 in 10.0 mi South 5.8 mph - N/A   Clear
2:15 PM 64.4 °F 44.6 °F 49% 30.16 in 10.0 mi SSE 8.1 mph - N/A   Scattered Clouds
2:35 PM 64.4 °F 44.6 °F 49% 30.15 in 10.0 mi Calm Calm - N/A   Partly Cloudy
2:55 PM 66.2 °F 44.6 °F 46% 30.15 in 10.0 mi SSW 8.1 mph - N/A   Partly Cloudy
3:15 PM 66.2 °F 42.8 °F 43% 30.14 in 10.0 mi East 3.5 mph - N/A   Clear
3:35 PM 66.2 °F 44.6 °F 46% 30.13 in 10.0 mi WSW 3.5 mph - N/A   Scattered Clouds
3:55 PM 64.4 °F 42.8 °F 45% 30.13 in 10.0 mi Calm Calm - N/A   Mostly Cloudy
4:15 PM 66.2 °F 44.6 °F 46% 30.13 in 10.0 mi South 3.5 mph - N/A   Scattered Clouds
4:35 PM 66.2 °F 42.8 °F 43% 30.12 in 10.0 mi Calm Calm - N/A   Partly Cloudy
4:55 PM 68.0 °F 44.6 °F 43% 30.11 in 10.0 mi Calm Calm - N/A   Partly Cloudy
5:15 PM 68.0 °F 42.8 °F 40% 30.11 in 10.0 mi NE 3.5 mph - N/A   Mostly Cloudy
5:35 PM 68.0 °F 42.8 °F 40% 30.11 in 10.0 mi Calm Calm - N/A   Mostly Cloudy
5:55 PM 68.0 °F 42.8 °F 40% 30.11 in 10.0 mi ENE 3.5 mph - N/A   Scattered Clouds
6:15 PM 68.0 °F 42.8 °F 40% 30.10 in 10.0 mi East 3.5 mph - N/A   Partly Cloudy
6:35 PM 66.2 °F 44.6 °F 46% 30.10 in 10.0 mi ENE 4.6 mph - N/A   Clear
6:55 PM 64.4 °F 44.6 °F 49% 30.10 in 10.0 mi East 4.6 mph - N/A   Clear
7:15 PM 64.4 °F 44.6 °F 49% 30.10 in 10.0 mi East 5.8 mph - N/A   Clear
7:35 PM 60.8 °F 46.4 °F 59% 30.11 in 10.0 mi ENE 5.8 mph - N/A   Clear
7:55 PM 59.0 °F 44.6 °F 59% 30.11 in 10.0 mi ENE 6.9 mph - N/A   Clear
8:15 PM 59.0 °F 44.6 °F 59% 30.11 in 10.0 mi East 6.9 mph - N/A   Clear
8:35 PM 57.2 °F 44.6 °F 63% 30.11 in 10.0 mi East 5.8 mph - N/A   Clear
8:55 PM 57.2 °F 44.6 °F 63% 30.12 in 10.0 mi East 6.9 mph - N/A   Clear
9:15 PM 57.2 °F 44.6 °F 63% 30.12 in 10.0 mi East 6.9 mph - N/A   Clear
9:35 PM 57.2 °F 44.6 °F 63% 30.12 in 10.0 mi ESE 8.1 mph - N/A   Clear
9:55 PM 55.4 °F 44.6 °F 67% 30.13 in 10.0 mi ESE 6.9 mph - N/A   Clear
10:15 PM 55.4 °F 44.6 °F 67% 30.13 in 10.0 mi ESE 6.9 mph - N/A   Clear
10:35 PM 55.4 °F 44.6 °F 67% 30.13 in 10.0 mi ESE 8.1 mph - N/A   Clear
10:55 PM 55.4 °F 44.6 °F 67% 30.13 in 10.0 mi ESE 5.8 mph - N/A   Clear
11:15 PM 53.6 °F 44.6 °F 72% 30.12 in 10.0 mi East 5.8 mph - N/A   Clear
11:35 PM 53.6 °F 44.6 °F 72% 30.12 in 10.0 mi ESE 5.8 mph - N/A   Clear
11:55 PM 53.6 °F 44.6 °F 72% 30.11 in 10.0 mi East 5.8 mph - N/A   Clear